Preview of NWS' New Version of Forecast
This preview is not operational and should not be used for support decisions.
Latest weather observations around

Bullhead City, Laughlin/Bullhead International Airport (KIFP)

Using English Units (Switch to International System of Units)
Date/ Time (MST) Wind (mph) Vis. (mi) Weather Sky Cond. Temp (°F) Rel. Humidity Wind Chill (°F) Heat Index (°F) Pressure Precip. (in)
Air Dwpt 6 hour Altimeter (inHg) Sea level (inHg) 1 hr 3 hr 6 hr
Max Min
Jun 21 09:50 SW 6 10 Clear CLR 95 37     13%   90 29.84        
Jun 21 08:47 SW 5 10 Clear CLR 91 37     15%   87 29.85        
Jun 21 07:47 S 6 10 Clear CLR 88 37     17%   84 29.84        
Jun 21 07:30 SSW 6 10 Clear CLR 88 37     17%   84 29.84        
Jun 21 07:15 SSE 7 10 Clear CLR 88 37     17%   84 29.84        
Jun 21 06:55 SE 7 10 Clear CLR 88 37     17%   84 29.83        
Jun 21 06:35 SE 6 10 Clear CLR 86 37     18%   83 29.83        
Jun 21 06:15 SE 5 10 Clear CLR 84 37     19%   81 29.83        
Jun 21 05:55 SE 6 10 Clear CLR 84 37     19%   81 29.82        
Jun 21 05:35 SE 7 10 Clear CLR 82 37     20%   80 29.81        
Jun 21 05:15 SSE 6 10 Clear CLR 84 37     19%   81 29.8        
Jun 21 04:55 ESE 7 10 Clear CLR 82 36     19%   80 29.79        
Jun 21 04:35 SE 5 10 Clear CLR 82 34     17%   80 29.79        
Jun 21 04:15 Calm 10 Clear CLR 86 36     17%   83 29.78        
Jun 21 03:55 S 5 10 Clear CLR 88 36     16%   84 29.78        
Jun 21 03:35 SSE 3 10 Clear CLR 86 32     14%   83 29.78        
Jun 21 03:15 Calm 10 Clear CLR 86 32     14%   83 29.77        
Jun 21 02:55 SSE 6 10 Clear CLR 86 34     16%   83 29.76        
Jun 21 02:35 ESE 7 10 Clear CLR 90 32     13%   86 29.76        
Jun 21 02:15 Calm 10 Clear CLR 88 30     13%   84 29.76        
Jun 21 01:55 SSE 3 10 Clear CLR 90 30     12%   85 29.76        
Jun 21 01:35 Calm 10 Clear CLR 90 28     11%   85 29.76        
Jun 21 01:15 SE 3 10 Clear CLR 90 28     11%   85 29.76        
Jun 21 00:55 S 5 10 Clear CLR 91 28     11%   87 29.75        
Jun 21 00:35 S 5 10 Clear CLR 93 27     9%   88 29.75        
Jun 21 00:15 Calm 10 Clear CLR 93 25     9%   88 29.75        
Jun 20 23:55 Calm 10 Clear CLR 95 27     9%   89 29.75        
Jun 20 23:35 Calm 10 Clear CLR 99 25     7%   92 29.74        
Jun 20 23:15 SSE 8 10 Clear CLR 99 23     7%   92 29.73        
Jun 20 22:55 Calm 10 Clear CLR 99 25     7%   92 29.74        
Jun 20 22:35 ESE 7 10 Clear CLR 99 25     7%   92 29.73        
Jun 20 22:15 S 9 10 Clear CLR 102 25     7%   95 29.73        
Jun 20 21:55 SSW 7 10 Clear CLR 100 25     7%   93 29.73        
Jun 20 21:35 SE 5 10 Clear CLR 100 25     7%   93 29.72        
Jun 20 21:15 S 7 10 Clear CLR 102 25     7%   95 29.72        
Jun 20 20:55 S 5 10 Clear CLR 102 25     7%   95 29.71        
Jun 20 20:35 S 3 10 Clear CLR 104 23     6%   96 29.7        
Jun 20 20:15 Calm 10 Clear CLR 106 23     5%   98 29.7        
Jun 20 19:55 Calm 10 Clear CLR 108 23     5%   99 29.7        
Jun 20 19:35 SW 6 10 Clear CLR 109 21     5%   101 29.69        
Jun 20 19:15 SW 6 10 Clear CLR 111 19     4%   102 29.69        
Jun 20 18:55 SW 5 10 Clear CLR 111 19     4%   102 29.69        
Jun 20 18:35 WSW 3 10 Clear CLR 111 19     4%   102 29.69        
Jun 20 18:15 SW 3 10 Clear CLR 113 19     4%   104 29.69        
Jun 20 17:55 SSW 6 10 Clear CLR 113 19     4%   104 29.69        
Jun 20 16:54 WSW 6 10 Clear CLR 113 18     3%   104 29.7        
Jun 20 15:49 WSW 3 10 Clear CLR 113 19     4%   104 29.72        
Jun 20 14:53 SW 7 10 Clear CLR 111 19     4%   102 29.74        
Jun 20 13:55 NNW 6 10 Clear CLR 109 23     5%   101 29.77        
Jun 20 12:50 WNW 9 10 Clear CLR 106 23     5%   98 29.79        
Jun 20 11:54 NW 9 10 Clear CLR 104 23     6%   96 29.81        
Jun 20 10:53 NW 5 10 Clear CLR 97 23     7%   90 29.84        
Jun 20 09:53 NW 6 10 Clear CLR 93 23     8%   87 29.86        
Jun 20 08:50 Calm 10 Clear CLR 88 25     10%   84 29.87        
Jun 20 07:55 Calm 10 Clear CLR 84 25     11%   81 29.86        
Jun 20 05:55 Calm 10 Clear CLR 79 21     12%   77 29.83        
Jun 20 05:35 Calm 10 Clear CLR 81 21     11%   79 29.82        
Jun 20 05:15 Calm 10 Clear CLR 79 23     13%   77 29.81        
Jun 20 04:55 Calm 10 Clear CLR 81 23     12%   79 29.81        
Jun 20 04:35 Calm 10 Clear CLR 81 23     12%   79 29.81        
Jun 20 04:15 Calm 10 Clear CLR 81 23     12%   79 29.8        
Jun 20 03:55 Calm 10 Clear CLR 81 21     11%   79 29.79        
Jun 20 03:35 Calm 10 Clear CLR 81 21     11%   79 29.79        
Jun 20 03:15 ENE 6 10 Clear CLR 82 19     10%   79 29.78        
Jun 20 02:55 NNE 3 10 Clear CLR 82        %     29.78        
Jun 20 02:35 Calm 10 Clear CLR 82 19     10%   79 29.78        
Jun 20 02:15 SE 3 10 Clear CLR 84 19     9%   81 29.77        
Jun 20 01:55 Calm 10 Clear CLR 84 19     9%   81 29.77        
Jun 20 01:35 Calm 10 Clear CLR 84 19     9%   81 29.77        
Jun 20 01:15 Calm 10 Clear CLR 86 23     10%   82 29.77        
Jun 20 00:55 Calm 10 Clear CLR 88        %     29.77        
Jun 20 00:35   10 Clear CLR 88        %     29.77        
Jun 20 00:15 ESE 8 10 Clear CLR 88 18     7%   83 29.77        
Jun 19 23:55 Calm 10 Clear CLR 90 18     7%   84 29.77        
Jun 19 23:35 ESE 6 10 Clear CLR 90 18     7%   84 29.77        
Jun 19 23:15 E 3 10 Clear CLR 90 19     8%   85 29.77        
Jun 19 22:55 Calm 10 Clear   93 23     8%   87 29.77        
Jun 19 22:35 Calm 10 Clear CLR 91 16     6%   86 29.77        
Jun 19 22:15 ENE 3 10 Clear CLR 95 18     6%   88 29.77        
Jun 19 21:55 Calm 10 Clear CLR 95 19     6%   89 29.76        
Jun 19 21:35 Calm 10 Clear CLR 97 18     6%   90 29.76        
Jun 19 21:15 Calm 10 Clear CLR 97 18     6%   90 29.75        
Jun 19 20:55 Calm 10 Clear CLR 99 18     5%   91 29.74        
Jun 19 20:35 Calm 10 Clear CLR 99 18     5%   91 29.74        
Jun 19 20:15 S 6 10 Clear CLR 100 18     5%   93 29.73        
Jun 19 19:55 SSW 6 10 Clear CLR 102 19     5%   94 29.73        
Jun 19 19:35 SW 3 10 Clear CLR 102 18     5%   94 29.73        
Jun 19 19:15 SW 5 10 Clear CLR 104 16     4%   96 29.72        
Jun 19 18:55 SW 6 10 Clear CLR 104 16     4%   96 29.72        
Jun 19 18:35 SSW 6 10 Clear CLR 104 14     4%   96 29.72        
Jun 19 18:15 SW 7 10 Clear CLR 106 12     3%   97 29.72        
Jun 19 17:47 SW 3 10 Clear CLR 106 12     3%   97 29.73        
Jun 19 16:50 W 6 10 Clear CLR 104 14     4%   96 29.74        
Jun 19 15:51 WSW 5 10 Clear CLR 104 16     4%   96 29.76        
Jun 19 14:50 W 5 10 Clear CLR 102 18     5%   94 29.79        
Jun 19 13:47 S 5 20 Clear CLR 100 18     5%   93 29.81        
Jun 19 12:48 W 3 10 Clear CLR 99 19     6%   91 29.83        
Jun 19 11:49 SW 5 10 Clear CLR 97 21     7%   90 29.85        
Jun 19 10:50 SW 6 10 Mostly Clear FEW200 93 21     7%   87 29.86        
Jun 19 09:48 SSW 5 10 Mostly Clear FEW200 88 23     9%   83 29.87        
Jun 19 08:48 S 3 10 Mostly Clear FEW250 84 21     10%   81 29.88        
Jun 19 07:50 Calm 10 Clear CLR 79 21     12%   77 29.88        
Jun 19 07:25 Calm 10 Clear CLR 77 23     13%   75 29.87        
Jun 19 07:15 Calm 10 Clear CLR 77 23     13%   75 29.87        
Jun 19 06:55 Calm 10 Clear CLR 77 21     12%   75 29.86        
Jun 19 06:35 Calm 10 Clear CLR 73 19     13%   71 29.85        
Jun 19 06:15 Calm 10 Clear CLR 73 19     13%   71 29.85        
Jun 19 05:55 Calm 10 Clear CLR 73 18     12%   71 29.84        
Jun 19 05:35 Calm 10 Clear CLR 72 19     14%   69 29.83        
Jun 19 05:15 Calm 10 Clear CLR 72 19     14%   69 29.83        
Jun 19 04:55 Calm 10 Clear CLR 75 19     12%   73 29.83        
Jun 19 04:35 Calm 10 Clear CLR 77 19     11%   75 29.82        
Jun 19 04:15 Calm 10 Clear CLR 75 19     12%   73 29.82        
Jun 19 03:55 Calm 10 Clear CLR 77 21     12%   75 29.82        
Jun 19 03:35 Calm 10 Clear   77 19     11%   75 29.81        
Jun 19 03:15 SE 5 10 Clear   77 21     12%   75 29.81        
Jun 19 02:55 SE 3 10 Clear   75 19     12%   73 29.8        
Jun 19 02:35 Calm 10 Clear CLR 79 19     11%   77 29.8        
Jun 19 02:15 Calm 10 Clear CLR 79 21     12%   77 29.8        
Jun 19 01:55 Calm 10 Clear CLR 81 21     11%   79 29.8        
Jun 19 01:35 Calm 10 Clear CLR 81 21     11%   79 29.79        
Jun 19 01:15 Calm 10 Clear CLR 81 19     10%   79 29.79        
Jun 19 00:55 Calm 10 Clear CLR 82 19     10%   79 29.79        
Jun 19 00:35 Calm 10 Clear CLR 82 23     11%   80 29.79        
Jun 19 00:15 Calm 10 Clear CLR 82 19     10%   79 29.79        
Jun 18 23:55 ESE 7 10 Clear CLR 82 19     10%   79 29.79        
Jun 18 23:35 E 5 10 Clear CLR 82 18     9%   79 29.79        
Jun 18 23:15 E 3 10 Clear CLR 84 19     9%   81 29.79        
Jun 18 22:55 ESE 5 10 Clear CLR 84 21     10%   81 29.79        
Jun 18 22:35 Calm 10 Clear CLR 88 19     8%   83 29.79        
Jun 18 22:15 Calm 10 Clear CLR 88 19     8%   83 29.79        
Jun 18 21:55 Calm 10 Clear CLR 88 23     9%   83 29.79        
Jun 18 21:35 Calm 10 Clear CLR 90 23     9%   85 29.78        
Jun 18 21:15 Calm 10 Clear CLR 90 23     9%   85 29.78        
Jun 18 20:55 SSW 3 10 Clear CLR 91 23     8%   86 29.77        
Jun 18 20:35 S 7 10 Clear CLR 95        %     29.76        
Jun 18 20:15 SSE 9 10 Clear CLR 95 19     6%   89 29.76        
Jun 18 19:55 S 10 10 Clear CLR 95 19     6%   89 29.75        
Jun 18 19:35 SSE 10 10 Clear CLR 97 19     6%   90 29.75        
Jun 18 19:15 S 8 10 Clear CLR 97        %     29.75        
Jun 18 18:55 S 7 10 Clear CLR 97 19     6%   90 29.75        
Jun 18 18:35 S 10 10 Clear CLR 97 19     6%   90 29.75        
Jun 18 18:15 S 10 10 Clear CLR 99 19     6%   91 29.75        
Jun 18 17:51 SE 6 10 Clear CLR 97 19     6%   90 29.75        
Jun 18 16:49 S 11 20 Clear CLR 99        %     29.76        
Jun 18 15:47 SSE 9 20 Clear CLR 97 27     8%   91 29.78        
Jun 18 14:51 SW 9 10 Clear CLR 97 23     7%   90 29.8        
Jun 18 13:51 SSW 13 10 Clear CLR 95 28     9%   89 29.82        
Jun 18 12:47 SSW 7 20 Clear CLR 91 34     13%   87 29.84        
Jun 18 11:47 S 18 20 Clear CLR 90 34     14%   86 29.86        
Jun 18 10:47 SSW 9 20 Clear CLR 88 36     16%   84 29.87        
May 15 04:15 ESE 5 10 Clear CLR 68 14     12%     29.82        
Notice The following observation data may not be complete
May 15 03:35 Calm 10 Clear CLR   14      %     29.82        
May 14 23:15 Calm 10 Clear CLR 79 18     10%   77 29.79        
May 13 21:35 Calm 10 Clear CLR 81        %     29.8        
May 13 04:15 SSW 8 10 Clear CLR 70 36     28%     29.79        
May 13 01:35 SW 5 10 Clear CLR 75 34     22%   73 29.78        
May 12 23:35   10 Clear CLR 81 34     18%   79 29.76        
May 12 19:55 S 9 10 Clear CLR 84 21     10%   81 29.72        
May 12 12:56 SSE 6 20 Clear CLR 84 25     11%   81 29.77        
May 12 07:30 N 10 10 Clear CLR 72 37     29%   70 29.78        
May 12 01:35 SW 7 10 Clear CLR 77 36     22%   75 29.61        
May 12 00:55 SSE 11 10 Clear CLR 77 36     22%   75 29.6        
May 11 20:55 S 24 10 Clear and Windy CLR 88 30     13%   84 29.49        
May 11 20:35   10 Clear CLR 90 28     11%   85 29.47        
Jun 12 04:55 Calm 10 Clear CLR 68 30     24%     29.85        
Jun 11 22:55 SSW 14 10 Clear CLR 77 39     26%   76 29.71        
Jun 11 20:35 SSE 24 10 Clear and Windy CLR 88        %     29.6        
Jun 11 18:55   10 Clear CLR 93 28     10%   88 29.57        
Jun 11 11:15 S 16 10 Clear CLR 90        %     29.69        
Jun 11 10:35 S 21 10 Clear and Windy CLR 88 32     14%   84 29.69        
Jun 11 04:35 S 11 10 Clear CLR 79 39     24%   78 29.62        
Jun 11 01:35 S 15 10 Clear CLR 86 37     18%   83 29.58        
Jun 10 18:35   10 Clear CLR 97        %     29.53        
Jun 10 17:15 S 20 10 Clear and Windy CLR 99 36     11%   93 29.55        
Jun 10 16:55 S 18 10 Clear CLR 99 36     11%   93 29.56        
Jun 10 15:35 SSE 18 10 Clear CLR 99 34     10%   93          
Notice The following observation data may not be complete
Jun 10 14:55   10 Clear CLR          %              
Jun 10 05:35 SSE 10 10 Clear CLR 82 46     28%   81 29.67        
Jun 09 20:55   10 Clear CLR 99        %     29.57        
Jun 09 10:35 SSW 11 10 Clear CLR 95 28     9%   89 29.76        
Jun 09 04:55 Calm 10 Clear CLR 81 30     16%   79 29.75        
Jun 09 02:55 SSE 6 10 Clear CLR 82 27     13%   80 29.74        
Jun 08 21:35   10 Clear CLR 97 32     10%   91 29.69        
Jun 08 17:35 SSE 16 10 Clear CLR 104 30     8%   97 29.68        
Jun 07 18:35 S 17 10 Clear CLR 102 23     6%   95 29.7        
Jun 07 16:35 S 15 10 Clear CLR 104 19     5%   96          
Jun 07 15:55 S 21 10 Clear and Windy CLR 104 18     5%   96 29.75        
Jun 07 10:15 S 18 10 Clear CLR 93 32     11%   88 29.85        
Jun 06 12:55 SSW 16 10 Partly Cloudy SCT095 104 36     10%   98 29.79        
Jun 05 18:15 SSW 13 10 Clear CLR 108 34     8%   101          
Jun 05 16:15 SSW 21 10 Clear and Windy CLR 109 32     7%   102 29.66        
Jun 05 15:15   10 Clear CLR 108 36     9%   101          
Notice The following observation data may not be complete
Jun 05 12:55   10 Clear CLR          %